This is the latest recevied weather packets stored in our database for station/object G4WLC-1. If no packets are shown the sender has not sent any weather packets the latest 10 day(s).
| Time | Temp. | Humidity | Pressure | Rain* | Wind** | Luminosity | Snow |
|---|---|---|---|---|---|---|---|
| 1788612719 | 18.89° C | 62% | 1025.3 hPa | 0 mm | - | - | - |
| 1788612432 | 19.44° C | 61% | 1025.2 hPa | 0 mm | - | - | - |
| 1788612119 | 19.44° C | 62% | 1025.3 hPa | 0 mm | - | - | - |
| 1788611819 | 19.44° C | 61% | 1025.3 hPa | 0 mm | - | - | - |
| 1788611519 | 19.44° C | 62% | 1025.2 hPa | 0 mm | - | - | - |
| 1788611219 | 19.44° C | 60% | 1025.1 hPa | 0 mm | - | - | - |
| 1788610919 | 19.44° C | 60% | 1025.1 hPa | 0 mm | - | - | - |
| 1788610619 | 19.44° C | 64% | 1025.1 hPa | 0 mm | - | - | - |
| 1788610319 | 19.44° C | 64% | 1025 hPa | 0 mm | - | - | - |
| 1788610019 | 19.44° C | 65% | 1025.1 hPa | 0 mm | - | - | - |
| 1788609719 | 19.44° C | 63% | 1025.1 hPa | 0 mm | - | - | - |
| 1788609419 | 18.89° C | 63% | 1025.1 hPa | 0 mm | - | - | - |
| 1788609119 | 18.89° C | 62% | 1025.1 hPa | 0 mm | - | - | - |
| 1788608819 | 19.44° C | 64% | 1025 hPa | 0 mm | - | - | - |
| 1788608519 | 18.89° C | 64% | 1025.2 hPa | 0 mm | - | - | - |
| 1788608219 | 18.89° C | 65% | 1025.3 hPa | 0 mm | - | - | - |
| 1788607919 | 18.33° C | 67% | 1025.2 hPa | 0 mm | - | - | - |
| 1788607619 | 18.33° C | 65% | 1025.1 hPa | 0 mm | - | - | - |
| 1788607319 | 18.33° C | 65% | 1025.3 hPa | 0 mm | - | - | - |
| 1788607019 | 18.33° C | 66% | 1025.3 hPa | 0 mm | - | - | - |
| 1788606719 | 18.33° C | 68% | 1025.4 hPa | 0 mm | - | - | - |
| 1788606419 | 17.78° C | 70% | 1025.1 hPa | 0 mm | - | - | - |
| 1788606119 | 17.78° C | 68% | 1025.2 hPa | 0 mm | - | - | - |
| 1788605819 | 17.78° C | 69% | 1025.1 hPa | 0 mm | - | - | - |
| 1788605519 | 17.78° C | 69% | 1025.1 hPa | 0 mm | - | - | - |
* Rain latest hour (hover to see other rain measurements)
** Current wind speed in m/s (hover to see current wind gust speed)